User: anonymous   Login
Location: Caltech
(34.1382°N, 118.1253°W)
Time: 10:39:02
(UTC-08:00)
Language:

Cosmos 1758 Rocket - Orbit

View from above orbital plane
View from above orbital plane
View from above satellite
View from above satellite

Ground track
Ground track

The orbit data is extracted from the following two-line orbital elements,

1 16792U 86046B   18051.86615118  .00000079  00000-0  67497-5 0  9994
2 16792  82.4854 328.4121 0023870 190.8568 234.2454 14.83168010711742
Epoch (UTC): 20 February 2018 20:47:15
Eccentricity: 0.0023870
inclination: 82.4854°
perigee height: 602 km
apogee height: 636 km
right ascension of ascending node: 328.4121°
argument of perigee: 190.8568°
revolutions per day: 14.83168010
mean anomaly at epoch: 234.2454°
orbit number at epoch: 71174

The dashed part of the orbit path shows where the satellite is in the earth's shadow,  

DLR